Time,TemperatureF,DewpointF,PressureIn,WindDirection,WindDirectionDegrees,WindSpeedMPH,WindSpeedGustMPH,Humidity,HourlyPrecipIn,Conditions,Clouds,dailyrainin,SolarRadiationWatts/m^2,SoftwareType,DateUTC
2013-05-03 00:21:00,31.0,31.0,-100.00,WNW,296,4.0,5.0,99,0.00,,,0.11,0.000000,,2013-05-03 05:21:00,
2013-05-03 00:32:00,31.0,31.0,-100.00,WNW,296,4.0,5.0,99,0.00,,,0.11,0.000000,,2013-05-03 05:32:00,
2013-05-03 00:42:00,31.0,31.0,-100.00,WNW,296,4.0,5.0,99,0.00,,,0.11,0.000000,,2013-05-03 05:42:00,
2013-05-03 00:52:00,31.0,31.0,-100.00,WNW,296,4.0,5.0,99,0.00,,,0.11,0.000000,,2013-05-03 05:52:00,
2013-05-03 01:21:00,31.0,30.0,-100.00,NW,304,4.0,5.0,96,0.00,,,0.07,0.000000,,2013-05-03 06:21:00,
2013-05-03 01:32:00,31.0,30.0,-100.00,NW,304,4.0,5.0,96,0.00,,,0.07,0.000000,,2013-05-03 06:32:00,
2013-05-03 01:42:00,31.0,30.0,-100.00,NW,304,4.0,5.0,96,0.00,,,0.07,0.000000,,2013-05-03 06:42:00,
2013-05-03 01:51:00,31.0,30.0,-100.00,NW,304,4.0,5.0,96,0.00,,,0.07,0.000000,,2013-05-03 06:51:00,
2013-05-03 02:21:00,30.0,29.0,-100.00,NW,315,5.0,6.0,96,0.00,,,0.03,0.000000,,2013-05-03 07:21:00,
2013-05-03 02:32:00,30.0,29.0,-100.00,NW,315,5.0,6.0,96,0.00,,,0.03,0.000000,,2013-05-03 07:32:00,
2013-05-03 02:42:00,30.0,29.0,-100.00,NW,315,5.0,6.0,96,0.00,,,0.03,0.000000,,2013-05-03 07:42:00,
2013-05-03 02:52:00,30.0,29.0,-100.00,NW,315,5.0,6.0,96,0.00,,,0.03,0.000000,,2013-05-03 07:52:00,
2013-05-03 03:21:00,31.0,27.0,-100.00,NNW,334,6.0,8.0,86,0.00,,,0.01,0.000000,,2013-05-03 08:21:00,
2013-05-03 03:32:00,31.0,27.0,-100.00,NNW,334,6.0,8.0,86,0.00,,,0.01,0.000000,,2013-05-03 08:32:00,
2013-05-03 03:42:00,31.0,27.0,-100.00,NNW,334,6.0,8.0,86,0.00,,,0.01,0.000000,,2013-05-03 08:42:00,
2013-05-03 03:52:00,31.0,27.0,-100.00,NNW,334,6.0,8.0,86,0.00,,,0.01,0.000000,,2013-05-03 08:52:00,
2013-05-03 04:21:00,31.0,28.0,-100.00,NW,325,6.0,8.0,89,0.00,,,0.00,0.000000,,2013-05-03 09:21:00,
2013-05-03 04:32:00,31.0,28.0,-100.00,NW,325,6.0,8.0,89,0.00,,,0.00,0.000000,,2013-05-03 09:32:00,
2013-05-03 04:42:00,31.0,28.0,-100.00,NW,325,6.0,8.0,89,0.00,,,0.00,0.000000,,2013-05-03 09:42:00,
2013-05-03 04:52:00,31.0,28.0,-100.00,NW,325,6.0,8.0,89,0.00,,,0.00,0.000000,,2013-05-03 09:52:00,
2013-05-03 05:22:00,30.0,28.0,-100.00,NNW,341,7.0,9.0,92,0.00,,,0.00,0.000000,,2013-05-03 10:22:00,
2013-05-03 05:32:00,30.0,28.0,-100.00,NNW,341,7.0,9.0,92,0.00,,,0.00,0.000000,,2013-05-03 10:32:00,
2013-05-03 05:42:00,30.0,28.0,-100.00,NNW,341,7.0,9.0,92,0.00,,,0.00,0.000000,,2013-05-03 10:42:00,
2013-05-03 05:52:00,30.0,28.0,-100.00,NNW,341,7.0,9.0,92,0.00,,,0.00,0.000000,,2013-05-03 10:52:00,
2013-05-03 06:22:00,29.0,27.0,-100.00,NNW,339,5.0,8.0,91,0.00,,,0.00,0.000000,,2013-05-03 11:22:00,
2013-05-03 06:32:00,29.0,27.0,-100.00,NNW,339,5.0,8.0,91,0.00,,,0.00,0.000000,,2013-05-03 11:32:00,
2013-05-03 06:42:00,29.0,27.0,-100.00,NNW,339,5.0,8.0,91,0.00,,,0.00,0.000000,,2013-05-03 11:42:00,
2013-05-03 06:51:00,29.0,27.0,-100.00,NNW,339,5.0,8.0,91,0.00,,,0.00,0.000000,,2013-05-03 11:51:00,
2013-05-03 07:21:00,28.0,27.0,-100.00,NNW,333,6.0,7.0,94,0.00,,,0.00,0.000000,,2013-05-03 12:21:00,
2013-05-03 07:32:00,28.0,27.0,-100.00,NNW,333,6.0,7.0,94,0.00,,,0.00,0.000000,,2013-05-03 12:32:00,
2013-05-03 07:42:00,28.0,27.0,-100.00,NNW,333,6.0,7.0,94,0.00,,,0.00,0.000000,,2013-05-03 12:42:00,
2013-05-03 07:51:00,28.0,27.0,-100.00,NNW,333,6.0,7.0,94,0.00,,,0.00,0.000000,,2013-05-03 12:51:00,
2013-05-03 08:22:00,34.0,32.0,-100.00,NNW,342,8.0,10.0,91,0.00,,,0.00,0.000000,,2013-05-03 13:22:00,
2013-05-03 08:32:00,34.0,32.0,-100.00,NNW,342,8.0,10.0,91,0.00,,,0.00,0.000000,,2013-05-03 13:32:00,
2013-05-03 08:42:00,34.0,32.0,-100.00,NNW,342,8.0,10.0,91,0.00,,,0.00,0.000000,,2013-05-03 13:42:00,
2013-05-03 08:52:00,34.0,32.0,-100.00,NNW,342,8.0,10.0,91,0.00,,,0.00,0.000000,,2013-05-03 13:52:00,
2013-05-03 09:22:00,38.0,31.0,-100.00,North,352,11.0,16.0,75,0.00,,,0.00,0.000000,,2013-05-03 14:22:00,
2013-05-03 09:32:00,38.0,31.0,-100.00,North,352,11.0,16.0,75,0.00,,,0.00,0.000000,,2013-05-03 14:32:00,
2013-05-03 09:42:00,38.0,31.0,-100.00,North,352,11.0,16.0,75,0.00,,,0.00,0.000000,,2013-05-03 14:42:00,
2013-05-03 09:52:00,38.0,31.0,-100.00,North,352,11.0,16.0,75,0.00,,,0.00,0.000000,,2013-05-03 14:52:00,
2013-05-03 10:22:00,42.0,28.0,-100.00,North,358,12.0,19.0,58,0.00,,,0.00,0.000000,,2013-05-03 15:22:00,
2013-05-03 10:32:00,42.0,28.0,-100.00,North,358,12.0,19.0,58,0.00,,,0.00,0.000000,,2013-05-03 15:32:00,
2013-05-03 10:43:00,42.0,28.0,-100.00,North,358,12.0,19.0,58,0.00,,,0.00,0.000000,,2013-05-03 15:43:00,
2013-05-03 10:53:00,42.0,28.0,-100.00,North,358,12.0,19.0,58,0.00,,,0.00,0.000000,,2013-05-03 15:53:00,
2013-05-03 11:23:00,44.0,28.0,-100.00,NNW,345,15.0,21.0,52,0.00,,,0.00,0.000000,,2013-05-03 16:23:00,
2013-05-03 11:32:00,44.0,28.0,-100.00,NNW,345,15.0,21.0,52,0.00,,,0.00,0.000000,,2013-05-03 16:32:00,
2013-05-03 11:42:00,44.0,28.0,-100.00,NNW,345,15.0,21.0,52,0.00,,,0.00,0.000000,,2013-05-03 16:42:00,
2013-05-03 11:52:00,44.0,28.0,-100.00,NNW,345,15.0,21.0,52,0.00,,,0.00,0.000000,,2013-05-03 16:52:00,
2013-05-03 12:23:00,48.0,28.0,-100.00,NNW,348,16.0,23.0,45,0.00,,,0.00,0.000000,,2013-05-03 17:23:00,
2013-05-03 12:32:00,48.0,28.0,-100.00,NNW,348,16.0,23.0,45,0.00,,,0.00,0.000000,,2013-05-03 17:32:00,
2013-05-03 12:42:00,48.0,28.0,-100.00,NNW,348,16.0,23.0,45,0.00,,,0.00,0.000000,,2013-05-03 17:42:00,
2013-05-03 12:52:00,48.0,28.0,-100.00,NNW,348,16.0,23.0,45,0.00,,,0.00,0.000000,,2013-05-03 17:52:00,
2013-05-03 13:21:00,52.0,25.0,-100.00,North,356,16.0,29.0,35,0.00,,,0.00,0.000000,,2013-05-03 18:21:00,
2013-05-03 13:32:00,52.0,25.0,-100.00,North,356,16.0,29.0,35,0.00,,,0.00,0.000000,,2013-05-03 18:32:00,
2013-05-03 13:42:00,52.0,25.0,-100.00,North,356,16.0,29.0,35,0.00,,,0.00,0.000000,,2013-05-03 18:42:00,
2013-05-03 13:51:00,52.0,25.0,-100.00,North,356,16.0,29.0,35,0.00,,,0.00,0.000000,,2013-05-03 18:51:00,
2013-05-03 14:21:00,53.0,25.0,-100.00,NNW,345,18.0,29.0,34,0.00,,,0.00,0.000000,,2013-05-03 19:21:00,
2013-05-03 14:32:00,53.0,25.0,-100.00,NNW,345,18.0,29.0,34,0.00,,,0.00,0.000000,,2013-05-03 19:32:00,
2013-05-03 14:42:00,53.0,25.0,-100.00,NNW,345,18.0,29.0,34,0.00,,,0.00,0.000000,,2013-05-03 19:42:00,
2013-05-03 14:52:00,53.0,25.0,-100.00,NNW,345,18.0,29.0,34,0.00,,,0.00,0.000000,,2013-05-03 19:52:00,
2013-05-03 15:21:00,53.0,25.0,-100.00,North,357,19.0,31.0,33,0.00,,,0.00,0.000000,,2013-05-03 20:21:00,
2013-05-03 15:32:00,53.0,25.0,-100.00,North,357,19.0,31.0,33,0.00,,,0.00,0.000000,,2013-05-03 20:32:00,
2013-05-03 15:42:00,53.0,25.0,-100.00,North,357,19.0,31.0,33,0.00,,,0.00,0.000000,,2013-05-03 20:42:00,
2013-05-03 15:52:00,53.0,25.0,-100.00,North,357,19.0,31.0,33,0.00,,,0.00,0.000000,,2013-05-03 20:52:00,
2013-05-03 16:21:00,54.0,16.0,-100.00,North,354,20.0,32.0,22,0.00,,,0.00,0.000000,,2013-05-03 21:21:00,
2013-05-03 16:33:00,54.0,16.0,-100.00,North,354,20.0,32.0,22,0.00,,,0.00,0.000000,,2013-05-03 21:33:00,
2013-05-03 16:42:00,54.0,16.0,-100.00,North,354,20.0,32.0,22,0.00,,,0.00,0.000000,,2013-05-03 21:42:00,
2013-05-03 16:52:00,54.0,16.0,-100.00,North,354,20.0,32.0,22,0.00,,,0.00,0.000000,,2013-05-03 21:52:00,
2013-05-03 17:22:00,54.0,16.0,-100.00,North,349,18.0,29.0,22,0.00,,,0.00,0.000000,,2013-05-03 22:22:00,
2013-05-03 17:32:00,54.0,16.0,-100.00,North,349,18.0,29.0,22,0.00,,,0.00,0.000000,,2013-05-03 22:32:00,
2013-05-03 17:42:00,54.0,16.0,-100.00,North,349,18.0,29.0,22,0.00,,,0.00,0.000000,,2013-05-03 22:42:00,
2013-05-03 17:52:00,54.0,16.0,-100.00,North,349,18.0,29.0,22,0.00,,,0.00,0.000000,,2013-05-03 22:52:00,
2013-05-03 19:23:00,52.0,18.0,-100.00,North,352,17.0,24.0,26,-99.99,,,0.00,0.000000,,2013-05-04 00:23:00,
2013-05-03 19:32:00,52.0,18.0,-100.00,North,352,17.0,24.0,26,-99.99,,,0.00,0.000000,,2013-05-04 00:32:00,
2013-05-03 19:41:00,52.0,18.0,-100.00,North,352,17.0,24.0,26,-99.99,,,0.00,0.000000,,2013-05-04 00:41:00,
2013-05-03 19:52:00,52.0,18.0,-100.00,North,352,17.0,24.0,26,-99.99,,,0.00,0.000000,,2013-05-04 00:52:00,
2013-05-03 20:21:00,49.0,19.0,-100.00,North,356,14.0,22.0,30,0.00,,,0.00,0.000000,,2013-05-04 01:21:00,
2013-05-03 20:32:00,49.0,19.0,-100.00,North,356,14.0,22.0,30,0.00,,,0.00,0.000000,,2013-05-04 01:32:00,
2013-05-03 20:41:00,49.0,19.0,-100.00,North,356,14.0,22.0,30,0.00,,,0.00,0.000000,,2013-05-04 01:41:00,
2013-05-03 20:52:00,49.0,19.0,-100.00,North,356,14.0,22.0,30,0.00,,,0.00,0.000000,,2013-05-04 01:52:00,
2013-05-03 21:21:00,43.0,22.0,-100.00,North,357,9.0,18.0,42,0.00,,,0.00,0.000000,,2013-05-04 02:21:00,
2013-05-03 21:32:00,43.0,22.0,-100.00,North,357,9.0,18.0,42,0.00,,,0.00,0.000000,,2013-05-04 02:32:00,
2013-05-03 21:42:00,43.0,22.0,-100.00,North,357,9.0,18.0,42,0.00,,,0.00,0.000000,,2013-05-04 02:42:00,
2013-05-03 21:52:00,43.0,22.0,-100.00,North,357,9.0,18.0,42,0.00,,,0.00,0.000000,,2013-05-04 02:52:00,
2013-05-03 22:22:00,39.0,23.0,-100.00,North,354,7.0,11.0,53,0.00,,,0.00,0.000000,,2013-05-04 03:22:00,
2013-05-03 22:33:00,39.0,23.0,-100.00,North,354,7.0,11.0,53,0.00,,,0.00,0.000000,,2013-05-04 03:33:00,
2013-05-03 22:43:00,39.0,23.0,-100.00,North,354,7.0,11.0,53,0.00,,,0.00,0.000000,,2013-05-04 03:43:00,
2013-05-03 22:52:00,39.0,23.0,-100.00,North,354,7.0,11.0,53,0.00,,,0.00,0.000000,,2013-05-04 03:52:00,
2013-05-03 23:22:00,41.0,27.0,-100.00,NNW,333,9.0,14.0,56,0.00,,,0.00,0.000000,,2013-05-04 04:22:00,
2013-05-03 23:33:00,41.0,27.0,-100.00,NNW,333,9.0,14.0,56,0.00,,,0.00,0.000000,,2013-05-04 04:33:00,
2013-05-03 23:42:00,41.0,27.0,-100.00,NNW,333,9.0,14.0,56,0.00,,,0.00,0.000000,,2013-05-04 04:42:00,
2013-05-03 23:52:00,41.0,27.0,-100.00,NNW,333,9.0,14.0,56,0.00,,,0.00,0.000000,,2013-05-04 04:52:00,